Date,TemperatureHighF,TemperatureAvgF,TemperatureLowF,DewpointHighF,DewpointAvgF,DewpointLowF,HumidityHigh,HumidityAvg,HumidityLow,PressureMaxIn,PressureMinIn,WindSpeedMaxMPH,WindSpeedAvgMPH,GustSpeedMaxMPH,PrecipitationSumIn
2013-2-1,69.9,25.9,47.0,42.2,-43.3,-99.9,61,17,23,30.25,30.14,9,3,17,0.00
2013-2-2,76.0,29.3,48.9,50.5,-37.8,-99.9,72,19,32,30.20,30.05,7,1,14,0.00
2013-2-3,73.7,25.5,50.2,50.9,-46.1,-99.9,70,15,22,30.14,30.01,10,2,18,0.00
2013-2-4,74.0,27.3,46.8,49.1,-42.6,-99.9,95,17,20,30.08,29.96,7,1,14,0.00
2013-2-5,80.7,30.8,51.3,56.1,-36.2,-99.9,77,20,38,30.02,29.93,6,1,12,0.00
2013-2-6,82.0,31.6,58.1,63.0,-33.8,-99.9,87,23,45,30.04,29.94,6,1,12,0.00
2013-2-7,81.2,39.8,62.0,64.1,-15.7,-99.9,94,32,50,30.00,29.86,11,3,21,0.00
2013-2-8,85.1,30.4,71.6,68.5,-37.3,-99.9,90,23,32,29.96,29.83,8,2,15,0.00
2013-2-9,79.6,29.6,58.3,60.7,-35.0,-99.9,95,26,46,30.10,29.99,8,2,18,0.00
2013-2-10,81.4,32.5,61.5,62.3,-31.2,-99.9,92,26,44,30.17,30.06,8,2,18,0.00
2013-2-11,82.2,32.0,64.5,65.2,-32.7,-99.9,91,26,51,30.13,30.01,9,2,16,0.00
2013-2-12,81.2,31.2,66.0,68.4,-32.9,-99.9,96,29,62,30.05,29.90,13,3,22,0.00
2013-2-13,81.6,31.6,74.4,71.9,-32.2,-99.9,92,30,65,29.93,29.83,14,4,23,0.00
2013-2-14,71.3,10.1,64.7,69.6,-75.1,-99.9,96,15,91,29.96,29.83,4,0,7,0.09
2013-2-15,67.8,14.5,65.8,62.6,-64.7,-99.9,88,18,77,29.99,29.88,5,0,9,0.00
2013-2-16,68.8,26.9,56.9,52.4,-37.2,-99.9,77,25,50,30.03,29.85,14,3,27,0.00
2013-2-17,59.0,21.8,43.1,26.0,-49.4,-99.9,45,13,23,30.26,30.03,11,3,20,0.00
2013-2-18,72.0,25.5,46.4,46.9,-43.6,-99.9,52,18,38,30.26,30.14,10,2,18,0.00
2013-2-19,78.3,30.3,58.1,61.4,-34.9,-99.9,87,25,53,30.14,30.02,7,2,17,0.00
2013-2-20,82.8,31.5,59.8,65.8,-34.8,-99.9,98,23,38,30.05,29.92,5,1,13,0.00
2013-2-21,83.2,30.9,63.7,66.7,-34.5,-99.9,97,26,50,30.03,29.93,7,1,13,0.00
2013-2-22,84.3,32.6,66.3,70.2,-31.4,-99.9,97,28,54,30.02,29.92,10,2,17,0.00
2013-2-23,83.2,33.1,71.1,71.2,-29.1,-99.9,95,31,62,29.97,29.85,14,4,23,0.00
2013-2-24,84.7,34.1,72.7,72.4,-28.9,-99.9,96,28,51,29.92,29.84,9,2,17,0.00
2013-2-25,83.0,33.6,68.1,71.2,-28.6,-99.9,97,30,58,29.86,29.73,12,3,21,0.00
2013-2-26,82.0,26.5,75.3,71.9,-43.0,-99.9,86,25,68,29.83,29.68,19,4,33,0.00
2013-2-27,76.7,25.3,66.4,63.1,-43.3,-99.9,89,24,58,29.91,29.80,6,1,12,0.00
2013-2-28,75.1,35.4,63.5,56.4,-19.6,-99.9,76,33,47,29.96,29.85,7,2,16,0.02